Location: Six Mile Lake
(44.9000°N, 79.7170°W)
Time: 13:02:33
(UTC-04:00)

ZACube-1 - Pass Details

Date: 04 July 2022
Orbit: 582 x 661 km, 97.6° (Epoch: 09 August)

Event Time Altitude Azimuth Distance (km) Brightness Sun altitude
Rises 03:57:31 0° 32° (NNE) 2,968 ? -13.7°
Reaches altitude 10° 04:00:45 10° 57° (ENE) 2,064 ? -13.3°
Maximum altitude 04:03:09 14° 89° (E) 1,802 ? -13.1°
Drops below altitude 10° 04:05:34 10° 122° (ESE) 2,070 ? -12.8°
Sets 04:08:48 0° 147° (SSE) 2,981 ? -12.4°
